GEFSMW_500_meanwind_210.txt.gz
Wind_Speed
6 6 6 7 7 7 7 7 7 7 7 7 6 6 6 6 5 4 3 2 2 2 1 0 2 3 3 4 4 4 4 5 6 6 6 6 7 7 8 9 9 9 9
6 7 6 5 5 5 6 5 5 5 6 6 5 5 5 5 4 4 3 3 2 2 2 1 0 1 2 2 3 4 4 5 6 6 6 6 7 7 8 9 10 11 11
8 8 8 7 6 5 6 5 5 5 5 6 5 4 5 5 4 3 3 4 3 3 3 2 1 1 2 2 3 4 5 5 6 7 7 8 8 9 9 9 10 11 11
9 9 9 8 7 7 6 6 6 6 5 5 5 5 5 5 4 4 3 3 4 4 3 3 3 3 4 4 4 4 4 5 6 7 8 8 9 9 9 10 10 11 12
11 10 10 10 9 9 8 8 7 6 6 6 5 5 5 5 5 5 4 4 5 5 5 4 4 5 5 5 5 5 6 6 7 7 8 8 9 9 10 10 11 11 12
12 11 11 11 11 11 11 9 9 8 8 7 6 6 6 6 6 6 6 6 6 6 6 6 6 6 6 6 6 7 7 7 8 8 9 9 10 10 10 10 11 11 11
14 14 14 14 13 13 13 12 11 11 10 9 8 8 7 7 7 7 7 8 9 9 8 8 7 8 8 7 7 8 8 8 9 9 9 9 10 10 11 11 12 11 12
18 17 17 17 16 15 14 14 13 13 12 11 11 10 10 10 9 10 10 11 11 10 9 9 9 9 9 9 9 9 10 10 10 10 11 11 11 11 12 12 13 13 13
20 20 20 19 19 18 17 17 16 16 15 14 14 13 12 12 11 12 12 13 13 12 12 11 11 11 11 11 11 11 11 12 12 12 12 13 13 13 13 14 14 14 14
22 22 21 21 22 21 20 20 19 19 18 18 16 16 15 14 14 14 15 14 13 13 14 13 12 12 13 12 12 12 13 13 13 14 14 14 15 15 15 15 15 16 16
23 23 22 22 22 22 22 22 22 21 20 20 20 19 18 17 16 16 16 16 16 15 16 15 14 14 14 14 13 13 14 14 14 15 16 16 16 16 16 16 16 17 17
25 24 23 23 23 24 24 25 24 23 23 23 22 21 21 20 19 18 18 17 17 17 18 18 17 16 16 16 15 15 16 15 15 16 17 17 17 18 18 18 18 19 19
27 26 26 25 25 25 25 26 26 26 26 24 23 22 23 22 20 21 20 19 19 19 19 18 19 19 18 18 18 18 18 18 18 18 18 19 19 20 20 20 21 21 21
28 28 28 28 27 27 27 27 27 28 28 26 24 24 23 23 22 22 22 23 22 21 21 20 21 21 21 21 21 21 21 21 21 21 21 21 21 21 22 23 23 23 24
30 30 30 30 29 29 29 29 30 30 29 28 27 26 26 26 25 25 24 24 24 23 23 23 23 23 23 24 24 24 23 24 24 24 24 24 24 24 24 25 25 25 25
32 31 31 31 31 31 31 31 32 33 32 30 29 29 29 29 28 27 26 26 27 26 26 25 25 25 26 26 25 25 26 26 26 27 27 27 27 27 27 27 27 27 27
31 32 33 32 32 32 33 34 34 34 33 33 32 32 32 31 29 29 28 28 28 29 29 27 27 27 27 27 27 28 28 28 29 29 29 30 30 29 29 29 28 28 28
31 32 33 33 33 34 34 35 34 34 33 34 34 33 32 30 31 31 29 29 29 29 29 29 29 29 29 29 29 30 30 30 30 30 31 31 30 30 30 30 29 29 29
33 33 32 33 34 36 36 35 36 35 35 35 34 34 34 33 32 31 31 31 31 31 31 30 30 29 30 30 31 31 31 31 31 31 31 31 31 31 31 32 31 31 31
34 34 34 34 35 35 35 35 36 37 37 36 35 35 35 34 33 32 32 33 33 32 32 31 31 31 32 32 32 33 34 34 34 33 33 33 33 33 33 33 33 33 32
34 34 34 35 35 36 36 36 37 37 37 37 37 36 36 35 34 34 34 34 34 33 33 33 33 33 33 33 33 34 35 35 35 35 35 35 36 36 36 36 35 35 35
34 34 35 35 36 35 36 37 37 37 38 39 38 38 37 36 36 36 35 35 35 34 34 35 35 35 34 35 35 35 36 36 36 36 36 37 37 37 37 37 36 37 37
31 33 34 35 36 35 35 36 37 37 38 38 37 38 38 37 37 36 36 36 36 36 36 36 36 37 36 37 36 36 36 38 37 37 38 38 38 38 37 37 38 38 38
31 31 31 32 33 34 35 36 36 37 37 38 38 38 39 38 38 37 37 37 37 37 38 37 37 37 38 37 37 38 38 38 38 38 38 37 37 38 38 37 37 37 38
30 30 30 31 32 32 33 34 36 38 39 39 39 39 38 38 38 38 38 38 38 39 39 39 39 39 38 38 38 38 38 38 38 38 38 38 38 37 37 37 37 37 37
30 30 31 32 33 33 34 35 36 36 37 38 37 37 37 38 39 40 40 40 40 40 40 40 40 39 39 38 38 38 38 38 38 38 38 37 36 36 36 36 37 37 37

GEFSMW_500_meanwind_216.txt.gz
Wind_Speed
9 9 9 10 10 10 10 10 9 9 9 8 8 6 6 6 7 6 4 3 3 3 4 4 4 3 4 5 6 6 6 6 7 7 7 7 8 7 7 8 8 7 7
10 9 9 9 9 9 9 9 8 8 8 8 8 7 6 6 7 6 5 4 4 3 4 5 4 4 4 5 5 5 5 6 6 7 7 8 7 7 8 8 9 9 9
10 10 9 9 9 9 9 9 9 8 8 8 8 7 7 7 7 7 6 6 5 4 4 5 5 5 5 5 6 6 6 6 6 7 8 8 8 9 9 9 9 9 9
10 10 10 10 10 9 9 9 9 9 9 9 9 8 9 8 8 7 7 6 5 6 6 6 6 6 6 6 7 7 7 7 7 8 8 9 9 9 9 9 9 9 9
12 12 11 11 10 10 10 10 10 9 10 10 10 10 10 10 9 8 7 7 6 7 7 7 7 7 8 7 7 7 7 7 8 8 9 9 10 10 9 9 9 9 9
14 13 13 13 12 11 11 11 11 10 11 11 11 12 11 11 10 9 9 8 8 8 9 9 8 9 9 9 8 8 8 8 9 9 9 9 9 10 10 10 11 10 10
18 16 16 16 15 14 13 13 13 13 12 12 13 13 13 12 12 11 11 10 10 11 11 11 10 10 10 10 10 10 10 9 10 10 11 11 10 10 10 11 11 11 11
21 19 18 18 18 17 16 15 15 15 15 15 15 15 14 14 14 14 14 13 13 13 13 13 13 12 12 12 12 12 11 11 12 11 12 12 12 12 12 12 12 12 12
23 21 21 20 20 19 19 19 18 17 17 17 17 17 16 16 17 17 16 16 16 16 16 15 14 14 14 14 14 14 13 13 13 13 13 14 14 14 14 14 14 14 14
24 24 23 23 22 22 22 22 21 20 19 19 19 19 18 18 18 18 18 18 17 17 18 19 17 17 16 16 15 14 14 14 14 14 15 15 15 15 15 16 16 16 16
25 24 24 25 24 23 24 24 23 22 21 21 21 21 21 20 20 20 20 20 20 20 20 18 19 18 18 17 17 16 16 16 16 16 16 16 16 16 17 17 18 18 18
28 27 27 27 27 26 26 26 26 25 24 23 23 23 23 22 21 22 23 23 23 23 22 21 20 19 19 19 18 18 17 17 17 18 17 17 18 18 18 19 19 19 19
29 29 29 30 29 29 28 28 27 27 26 26 26 25 25 24 24 24 25 25 25 24 23 22 21 21 21 20 19 19 19 19 20 19 19 19 20 20 21 21 21 21 21
30 31 31 31 31 31 30 29 29 29 28 28 28 28 28 27 26 26 25 26 24 23 24 23 23 23 22 21 20 21 21 21 22 22 22 22 22 22 23 23 23 23 22
31 32 32 32 32 32 31 31 31 31 31 30 30 30 30 30 29 28 27 26 25 25 25 25 24 24 24 23 23 23 23 24 24 24 24 24 24 24 24 24 25 25 24
31 32 33 34 33 33 32 32 33 33 33 33 32 33 33 32 31 31 30 29 28 28 27 26 25 25 25 25 25 25 25 25 25 24 24 24 25 26 27 27 26 26 27
32 32 33 34 34 33 33 34 33 34 35 35 35 34 34 34 33 33 33 33 31 30 30 29 28 28 28 28 28 27 27 26 25 25 26 27 27 28 28 29 29 29 29
32 32 33 34 34 34 34 35 35 36 36 36 35 35 35 35 35 35 34 34 33 32 32 31 30 30 31 30 30 29 29 28 27 28 28 29 30 30 30 30 30 30 30
33 32 33 35 35 36 36 36 37 37 37 37 36 36 37 37 36 35 34 35 34 33 34 33 33 32 32 32 32 31 31 29 29 30 30 31 31 31 31 31 31 30 30
35 34 35 36 37 37 37 37 37 38 38 37 38 38 38 39 38 36 35 35 34 35 35 35 35 34 33 33 33 33 32 31 31 32 32 32 32 32 33 32 33 32 32
35 36 37 37 37 38 38 38 38 39 39 39 40 39 38 38 37 37 36 35 35 35 36 35 35 35 35 35 35 35 34 34 34 33 33 33 33 33 34 35 35 35 35
36 36 35 36 37 37 38 39 39 39 39 38 38 38 38 36 37 37 37 37 37 37 36 36 36 36 36 35 34 34 35 35 35 34 34 34 34 35 36 36 37 37 37
35 36 35 35 35 35 36 36 37 38 38 37 37 37 37 37 38 38 39 38 38 38 38 37 36 35 36 36 35 36 36 36 36 36 36 37 37 37 37 37 38 38 38
35 36 36 36 35 36 36 36 37 38 37 37 36 35 35 36 37 37 37 37 37 37 37 37 37 36 36 36 36 36 36 37 38 38 38 38 39 39 38 39 39 39 39
34 35 36 36 35 35 36 36 35 35 36 35 34 34 35 35 36 37 36 35 36 37 37 36 36 37 36 36 36 37 38 39 39 40 40 40 39 40 40 40 40 40 39
35 35 35 35 36 36 36 36 35 35 34 33 33 34 35 35 35 36 36 35 35 35 36 36 37 37 38 38 38 38 39 39 39 39 39 39 40 40 40 40 39 39 39

GEFSMW_500_meanwind_222.txt.gz
Wind_Speed
8 8 8 8 8 8 8 8 9 9 9 9 9 8 7 7 6 6 6 4 3 2 2 1 1 1 2 3 4 4 5 5 6 6 6 6 6 6 7 6 7 8 8
7 7 6 6 6 6 6 6 7 8 8 8 8 8 7 6 5 5 4 4 3 3 2 2 2 2 2 2 3 4 4 5 6 6 7 7 7 8 8 8 8 8 9
7 7 6 5 5 4 4 4 5 6 6 6 6 6 6 5 5 5 4 3 2 2 2 2 2 3 3 3 3 3 4 6 6 7 8 8 9 8 9 9 9 9 9
8 8 7 6 5 4 4 3 4 5 5 5 5 5 5 5 4 4 4 4 3 2 2 3 3 4 4 5 5 5 5 6 7 8 9 9 9 9 9 9 9 9 10
9 9 8 8 7 6 6 5 5 5 5 5 4 4 5 5 5 5 5 4 4 4 4 5 5 5 6 6 7 7 7 7 8 8 8 9 9 9 9 9 9 9 10
9 9 9 9 8 8 8 8 7 7 7 6 6 5 5 5 5 5 6 6 6 6 6 6 6 6 7 7 8 8 8 9 9 9 10 10 10 9 9 9 9 9 9
12 11 10 9 10 10 10 11 11 10 10 9 9 9 8 7 7 7 7 7 7 7 7 8 8 8 8 9 9 10 10 10 11 12 12 11 11 10 10 10 9 10 10
14 13 12 11 12 12 13 14 14 13 12 12 12 12 12 11 10 10 10 10 10 10 9 9 9 9 9 10 10 11 11 12 13 13 13 13 12 11 12 12 11 11 12
17 16 16 15 15 15 15 16 16 15 14 14 14 15 15 15 14 13 13 13 12 11 11 11 11 10 11 11 11 11 11 12 13 13 14 15 14 14 13 13 13 13 13
20 20 20 19 18 18 18 18 17 17 17 16 17 17 17 17 17 16 16 16 15 14 13 13 13 13 14 14 13 13 13 13 14 14 15 15 15 15 14 14 14 14 14
23 23 23 22 21 21 21 21 20 19 18 18 18 18 18 19 19 19 19 19 18 17 17 17 17 16 16 15 15 15 16 16 16 16 16 16 17 16 15 15 15 15 16
24 23 24 25 24 23 23 23 22 21 20 19 19 19 20 21 21 21 21 21 21 21 20 20 19 19 18 17 17 18 18 18 17 17 17 17 18 18 17 17 17 18 18
25 25 25 25 25 25 25 25 24 23 23 22 21 22 22 22 22 23 23 22 22 22 21 21 21 21 21 20 20 20 20 19 19 19 18 18 18 18 18 18 19 19 19
25 26 26 26 27 26 26 26 25 25 24 24 24 24 24 24 25 24 24 24 23 23 22 23 23 23 23 23 23 22 21 21 20 20 20 19 19 20 20 19 20 20 21
26 27 29 30 30 29 28 28 27 27 27 28 28 27 27 26 27 27 27 27 26 26 26 26 25 25 25 24 24 24 23 22 22 21 21 21 21 21 21 21 21 22 22
30 31 32 32 31 31 30 29 29 29 30 30 31 31 31 29 28 28 28 28 28 28 28 28 28 28 28 26 25 25 25 25 23 23 23 23 22 22 22 22 23 23 23
33 34 34 31 31 30 31 31 30 30 30 32 33 33 32 31 30 30 30 29 30 30 30 30 29 29 28 28 28 27 27 27 26 26 25 25 24 25 24 24 24 24 25
34 34 34 33 32 32 31 31 31 31 31 32 32 32 33 33 32 32 32 31 31 31 31 31 31 33 33 31 30 29 29 29 28 28 28 27 27 27 27 26 26 26 27
34 34 32 31 32 32 32 31 32 32 32 33 33 34 34 34 35 34 33 33 33 33 33 33 34 35 34 33 32 31 30 31 31 30 30 29 29 29 29 29 29 28 28
35 34 34 34 34 33 32 32 32 32 33 33 34 35 36 37 37 37 36 35 35 36 36 35 35 35 35 34 34 32 31 31 31 32 32 32 32 31 31 31 30 30 30
36 35 35 35 34 33 32 32 33 34 35 35 36 37 38 39 39 38 38 38 38 37 37 36 37 36 35 34 34 34 33 32 32 33 33 34 33 33 33 33 32 32 32
36 36 35 34 34 34 33 33 34 35 36 36 36 37 37 38 39 39 39 39 39 38 38 38 37 37 36 35 34 35 34 33 33 33 33 34 34 34 35 35 34 33 33
35 35 35 35 35 35 35 34 34 35 36 35 35 36 36 37 38 39 39 39 38 38 38 38 37 36 36 35 35 35 34 34 34 34 33 33 34 35 36 36 36 35 35
37 35 35 35 36 36 36 36 35 35 35 34 34 35 35 36 37 37 37 37 37 36 36 36 36 35 34 35 34 34 35 35 35 34 34 34 35 35 35 37 38 37 36
35 36 36 36 37 37 37 36 36 36 35 34 34 34 35 35 35 36 36 36 35 36 35 35 35 34 34 33 33 33 34 34 34 35 36 36 36 36 37 37 38 37 37
34 34 34 35 36 35 35 36 35 35 34 34 34 34 34 34 34 35 35 35 33 33 33 34 34 34 34 34 34 34 34 35 35 36 37 37 37 37 37 38 38 39 39

GEFSMW_500_meanwind_228.txt.gz
Wind_Speed
4 5 5 5 5 5 6 6 7 7 6 6 5 4 4 4 3 2 1 1 1 1 1 2 2 2 3 3 4 5 5 6 6 6 6 7 8 8 9 9 9 9 9
2 4 4 3 3 3 4 5 6 6 5 5 4 4 3 3 3 2 1 1 1 2 2 3 4 4 4 4 5 6 6 6 7 7 7 8 9 9 10 10 10 10 10
3 2 2 2 1 3 3 4 4 4 4 4 4 4 3 3 2 2 2 2 3 3 4 4 5 6 6 6 6 7 7 8 8 8 9 9 9 10 10 11 12 12 12
5 4 3 2 2 2 2 2 2 3 2 2 2 2 3 3 3 3 3 4 4 5 6 6 6 7 7 7 7 7 8 8 8 9 9 9 10 10 10 10 11 11 11
8 7 6 5 4 4 4 3 3 3 3 3 3 3 3 4 4 5 5 6 7 8 8 8 8 8 8 8 9 9 9 9 9 9 10 10 10 10 11 11 11 12 12
11 10 9 8 6 6 6 6 5 6 6 6 6 6 6 6 6 6 7 8 9 10 10 10 10 10 10 10 10 10 10 11 11 11 11 12 12 12 12 12 12 13 13
13 11 10 10 9 9 8 9 9 9 9 9 9 9 9 9 8 8 9 10 11 12 12 11 11 11 12 12 11 11 11 12 12 12 12 12 13 13 13 13 13 14 14
15 13 12 12 11 11 10 10 11 11 12 12 12 12 12 12 12 12 12 12 12 13 13 13 13 13 14 13 13 12 12 13 13 13 13 13 13 14 14 15 15 15 15
17 16 15 15 15 14 13 12 13 13 14 14 15 14 15 15 15 15 15 15 15 15 15 15 15 16 16 16 15 15 14 14 14 14 14 14 14 15 16 16 16 16 16
19 19 18 18 17 18 17 16 16 16 17 17 17 17 18 18 18 16 16 17 17 17 17 18 18 18 17 17 17 16 16 15 15 15 15 16 16 17 17 17 17 17 16
20 21 21 20 20 20 20 19 19 20 20 20 19 19 20 21 20 19 19 19 19 19 19 19 19 19 18 17 17 17 17 17 17 17 17 18 18 18 18 18 18 18 18
22 23 23 23 23 22 22 21 21 21 22 21 21 21 21 21 21 21 21 20 20 21 21 21 21 20 20 20 19 19 19 19 19 19 19 19 20 20 19 19 19 20 20
24 25 25 25 25 24 24 23 22 22 23 23 23 22 22 22 22 23 23 23 23 23 23 23 23 22 21 21 21 22 22 22 22 22 22 21 21 21 21 21 21 21 21
25 26 27 27 27 27 26 25 24 23 23 24 24 24 24 24 25 25 25 25 26 26 26 25 24 23 23 23 24 25 25 24 24 24 24 24 23 22 23 23 23 23 22
27 27 28 28 28 29 28 26 26 26 25 25 25 25 26 26 26 27 28 27 27 28 29 28 27 26 25 25 26 27 27 26 26 26 27 26 25 25 25 25 25 25 24
28 28 28 29 29 29 28 28 28 28 27 27 27 28 29 29 28 29 30 29 29 30 29 29 29 28 27 28 29 29 28 28 28 28 28 27 27 27 27 27 27 27 26
29 29 30 30 30 29 29 30 30 29 29 29 29 30 30 30 30 31 31 32 31 31 30 30 30 30 30 31 31 32 31 31 31 31 30 29 29 29 30 29 29 28 28
30 30 30 30 30 30 31 32 32 31 32 32 32 32 32 32 32 33 33 32 31 31 31 31 32 33 33 33 34 34 33 33 33 33 34 32 31 32 31 31 31 31 31
32 32 32 32 32 31 32 32 32 34 34 34 33 32 33 33 33 34 33 33 33 33 33 33 33 34 34 34 33 34 34 34 35 34 34 34 33 33 33 33 33 33 33
35 34 34 35 35 35 35 35 34 35 36 35 34 33 34 35 34 34 34 34 34 34 34 34 34 34 34 34 34 34 35 35 35 35 35 35 35 35 35 34 33 34 34
36 36 36 36 36 36 35 36 36 35 36 36 35 35 35 35 34 34 35 35 35 35 34 35 35 35 34 34 34 34 34 35 36 36 36 35 35 35 36 36 35 35 35
36 37 38 38 38 36 35 36 36 36 36 36 36 36 35 35 36 36 36 36 36 36 36 35 35 36 35 34 34 34 34 35 35 36 36 36 35 36 36 36 36 36 36
38 38 39 39 37 36 36 36 36 36 36 37 37 36 35 36 37 37 36 36 36 37 36 35 35 35 35 34 33 34 34 35 35 35 35 35 35 35 35 36 36 37 36
38 38 38 38 37 37 36 35 35 35 35 36 37 37 37 36 36 36 36 36 36 36 36 36 35 34 34 33 34 34 35 36 36 35 35 35 36 36 35 36 37 37 37
37 37 36 36 35 36 36 36 36 36 37 37 38 38 37 37 36 36 36 36 36 36 36 35 34 34 34 33 34 35 36 36 36 36 36 35 36 36 36 36 36 36 37
37 36 36 35 35 35 35 35 35 36 36 36 36 37 37 37 37 37 36 36 36 36 36 35 35 34 34 33 33 34 34 35 35 36 36 36 37 37 36 35 36 37 37

GEFSMW_500_meanwind_234.txt.gz
Wind_Speed
2 2 2 2 2 2 3 3 4 4 4 4 4 4 4 4 3 2 1 1 0 0 1 2 2 3 4 3 4 4 4 5 5 6 6 7 7 8 9 9 9 10 10
4 3 2 2 1 0 1 2 3 3 3 3 2 3 3 2 2 1 0 0 1 1 2 3 4 4 5 5 5 5 5 6 6 7 7 8 8 7 8 9 10 11 11
6 5 4 3 3 2 1 1 1 2 2 2 1 1 1 1 0 0 1 1 1 2 4 5 5 5 6 6 6 6 6 7 7 7 8 8 9 9 9 9 10 11 11
9 8 6 5 5 4 4 3 2 2 2 2 1 2 2 2 2 2 2 2 3 4 5 6 6 6 7 7 8 8 8 8 8 8 9 9 10 10 10 10 10 10 10
11 11 10 9 8 7 6 6 5 4 4 4 4 4 4 4 4 4 4 4 4 5 6 7 7 8 9 9 9 10 9 9 9 9 9 10 10 11 11 11 11 12 12
14 13 13 12 10 10 9 8 8 7 7 7 6 6 7 7 7 7 7 7 7 7 7 8 8 9 10 10 10 10 9 9 9 9 10 10 11 12 12 12 12 13 13
16 15 15 14 12 12 11 10 10 10 9 9 9 9 9 10 10 9 10 10 10 10 9 10 10 10 10 11 11 10 9 10 10 11 11 11 12 13 13 14 14 14 14
17 17 16 16 15 15 14 14 12 12 11 11 11 11 12 12 13 13 13 13 13 13 13 12 12 12 11 11 11 11 11 11 12 12 12 13 13 14 15 15 15 15 15
19 19 19 18 18 18 17 16 15 15 14 14 14 14 15 15 15 15 15 15 15 15 15 14 14 14 13 13 13 13 13 13 13 13 13 14 14 15 15 16 16 16 16
20 20 20 20 20 20 20 19 19 18 18 17 16 17 17 17 17 17 17 17 16 16 16 16 16 15 15 15 16 16 15 15 15 15 15 16 16 17 17 17 17 17 17
21 21 21 22 22 22 22 22 22 21 20 20 19 19 19 19 19 19 19 19 18 18 18 18 17 17 17 17 17 18 18 17 17 16 17 18 18 19 19 18 18 18 19
21 22 23 24 23 23 23 24 24 24 23 23 23 23 23 22 22 22 22 21 20 19 19 20 20 19 19 19 19 19 19 19 19 19 19 20 21 21 21 21 21 21 21
22 22 23 25 25 25 26 26 26 26 26 26 26 25 25 24 24 24 25 24 23 22 22 22 22 22 21 21 22 22 22 22 21 22 22 23 23 23 23 24 24 24 24
24 24 25 25 27 28 28 28 29 29 29 29 29 29 28 27 27 27 27 26 25 25 25 24 24 24 24 24 23 24 25 24 24 24 24 25 25 26 26 26 26 27 27
26 26 26 27 28 29 30 30 30 31 31 31 31 31 31 30 29 29 29 29 28 27 27 26 26 27 27 26 27 27 27 27 27 27 27 27 27 28 28 28 28 28 28
27 27 28 28 29 30 30 31 31 31 31 32 32 32 32 31 31 31 31 30 29 28 27 27 28 28 28 28 28 28 28 28 29 29 30 30 29 29 29 29 28 28 29
30 29 29 30 30 31 32 32 32 33 33 34 33 33 33 34 33 32 31 30 30 30 30 30 30 29 30 30 30 30 31 31 31 32 32 32 31 31 31 31 31 31 31
31 31 30 30 31 32 32 33 33 34 35 36 35 34 34 34 34 33 33 32 32 32 31 31 31 31 31 32 32 33 34 33 33 33 33 33 32 32 33 33 33 33 33
32 32 32 32 32 32 33 33 33 34 36 36 35 34 34 35 35 35 34 34 34 34 33 32 32 33 33 33 33 34 35 36 35 35 35 34 33 33 34 34 34 34 34
34 33 33 33 33 33 34 34 33 34 34 35 35 35 35 35 36 35 35 36 35 34 33 33 34 34 34 34 35 36 36 37 36 36 36 36 35 35 35 36 36 35 35
33 33 33 33 33 34 34 34 34 34 33 33 35 36 37 37 36 36 37 36 35 35 35 35 36 36 36 36 37 36 36 37 37 37 37 37 37 37 37 37 36 37 37
34 33 34 34 34 35 35 35 35 35 34 35 35 36 38 39 38 37 37 37 37 37 37 37 36 36 37 37 37 37 37 37 37 37 37 37 37 38 38 38 38 38 38
35 35 35 36 36 36 36 36 36 36 36 37 37 37 38 39 38 38 38 39 39 39 38 38 37 37 38 38 38 38 38 38 37 37 37 37 37 37 37 37 38 38 38
35 35 35 35 36 36 37 37 37 37 37 37 37 37 38 38 38 38 39 39 39 40 40 39 40 39 39 39 39 38 38 38 37 36 36 36 35 36 36 36 36 36 37
37 36 36 36 37 37 37 36 37 36 37 37 37 37 37 37 38 38 39 40 40 40 39 39 39 39 39 39 39 38 37 37 37 36 36 35 35 35 35 36 35 35 36
38 38 38 38 37 36 37 37 36 36 37 37 38 38 38 38 39 39 39 40 40 40 39 38 38 38 38 38 37 37 37 37 37 37 36 36 36 35 35 36 35 34 34

GEFSMW_500_meanwind_240.txt.gz
Wind_Speed
7 7 7 7 6 6 5 5 4 3 2 2 2 1 1 1 1 1 2 2 2 3 3 3 3 4 4 5 5 5 4 5 6 6 5 5 5 6 6 7 7 8 8
7 7 7 6 6 5 4 4 4 3 3 2 1 1 1 1 1 1 1 2 3 3 4 5 5 5 5 5 5 5 5 5 5 5 5 6 6 6 6 7 8 8 8
8 8 7 6 6 5 4 4 4 4 3 2 2 2 2 2 2 2 3 3 3 4 5 6 6 6 7 7 7 6 6 7 7 6 6 6 7 7 7 7 8 8 9
11 9 8 7 7 7 6 5 4 5 4 4 3 4 4 3 3 3 4 5 5 6 6 7 7 7 7 8 8 8 8 8 8 7 7 8 8 8 8 8 8 9 9
13 11 9 8 8 8 7 6 6 6 6 5 5 5 5 5 5 6 6 7 7 7 7 8 8 8 9 9 9 9 9 9 9 9 9 9 9 10 10 10 10 11 11
12 12 11 10 8 9 9 8 8 7 7 7 7 7 7 7 7 7 8 8 9 9 9 10 10 10 10 10 10 10 10 10 11 11 10 11 11 11 12 11 11 11 12
13 13 13 12 12 11 10 10 10 10 10 9 10 10 9 9 9 9 9 9 10 11 11 12 12 12 12 11 11 11 11 11 12 12 13 13 13 13 13 13 12 12 13
14 15 15 15 14 13 13 12 12 12 12 12 12 12 12 11 11 11 11 11 12 12 13 13 14 13 13 12 12 13 13 13 13 13 14 14 14 13 13 14 14 14 14
15 15 15 16 16 16 15 15 15 14 14 14 14 13 14 13 13 13 13 14 14 14 14 15 15 15 15 14 14 14 14 14 14 14 14 15 15 15 15 15 15 16 16
17 17 17 17 19 19 18 17 18 17 16 16 16 16 15 16 16 16 16 16 16 16 16 17 16 16 16 16 16 16 15 16 16 16 16 16 16 16 16 16 16 17 16
18 18 19 19 20 21 21 20 19 19 19 19 18 18 18 18 19 19 19 19 18 18 18 19 18 17 17 18 18 17 17 17 17 18 18 18 18 18 18 18 19 19 19
22 21 21 21 21 22 22 22 22 21 21 21 21 21 21 21 21 21 21 21 21 21 21 21 20 19 20 20 20 20 19 19 19 20 20 20 21 21 21 21 21 22 21
24 24 23 23 23 23 24 23 23 23 23 23 24 24 23 24 25 24 24 24 24 23 23 23 22 23 23 22 22 22 22 23 23 23 23 23 23 23 23 23 23 24 24
26 25 26 25 25 25 25 26 25 25 25 25 25 26 26 27 27 27 27 27 26 26 25 25 25 25 24 24 24 24 25 26 26 26 26 25 25 25 25 25 26 26 26
27 27 27 27 27 27 27 28 28 27 28 28 27 28 28 28 29 30 30 30 29 28 27 27 26 26 26 27 27 27 27 27 27 27 27 27 27 27 28 28 28 28 28
30 30 30 29 29 29 29 29 31 30 30 30 30 30 30 30 31 31 31 31 31 29 28 28 28 28 28 29 29 30 29 29 29 29 29 29 29 30 29 29 28 29 29
33 33 33 32 32 32 32 31 31 31 31 31 32 32 32 33 32 33 33 32 31 30 28 28 29 30 31 31 31 31 31 31 31 31 31 31 31 32 32 31 31 32 32
35 35 35 35 34 33 33 33 32 32 32 32 33 34 34 35 34 34 33 33 33 32 31 30 30 31 32 32 32 32 33 32 32 32 32 32 33 33 34 34 34 33 33
36 36 36 36 35 35 35 35 34 33 33 34 34 35 36 36 36 35 35 35 34 34 33 32 32 32 33 33 33 34 33 34 34 34 34 34 35 35 35 35 34 34 34
37 36 36 36 36 36 36 36 35 35 36 36 36 36 37 37 37 37 37 37 37 36 34 33 33 33 32 33 34 35 35 35 35 36 35 36 36 36 36 36 35 35 35
38 38 37 36 36 36 36 36 36 37 37 37 37 36 36 37 37 37 38 38 37 36 35 35 35 34 34 34 35 35 35 36 37 37 35 36 37 37 37 38 38 37 37
38 37 37 37 37 37 36 36 37 37 37 37 36 36 37 36 36 37 37 37 37 36 36 36 36 36 35 36 36 35 36 37 37 37 37 37 37 38 38 38 39 39 39
37 36 37 37 37 38 38 37 37 37 38 37 38 38 38 37 37 38 37 37 37 37 37 36 36 36 37 37 37 37 37 37 38 38 38 38 38 38 37 38 38 39 39
39 38 38 38 38 38 38 38 38 38 38 38 38 38 38 38 38 39 39 38 38 38 37 37 38 38 38 37 36 36 37 38 38 38 37 38 37 38 38 38 38 37 37
41 39 38 38 37 37 38 39 39 38 38 38 38 38 38 38 38 37 37 38 38 38 38 38 38 38 37 37 37 37 38 38 38 38 38 38 38 38 37 36 36 36 35
42 41 40 39 38 38 39 39 38 37 37 37 37 37 37 37 38 37 37 37 37 37 37 37 37 38 38 38 38 38 39 39 38 38 38 38 38 38 37 36 36 35 35

GEFSMW_500_meanwind_246.txt.gz
Wind_Speed
6 5 6 6 6 6 5 5 5 5 4 4 4 4 4 4 4 3 3 3 3 2 2 2 2 2 2 2 2 2 3 3 3 4 4 3 3 3 3 4 5 6 6
6 5 5 5 5 4 4 4 4 4 4 3 3 3 3 3 3 2 2 2 1 1 1 2 2 2 2 2 3 3 3 3 4 4 4 4 4 4 4 4 5 5 6
6 4 5 4 4 3 4 3 3 2 3 2 2 2 2 2 2 1 1 1 1 1 1 2 3 3 3 3 3 4 4 4 5 5 5 5 5 5 5 5 6 6 7
6 5 4 4 3 3 3 2 1 1 1 1 1 1 1 1 1 1 2 2 3 3 3 4 4 4 4 4 5 5 5 5 5 5 5 6 7 7 7 7 7 7 8
8 7 6 5 4 3 3 2 2 1 1 1 1 1 2 2 2 2 3 3 4 4 4 5 6 6 6 6 6 6 6 6 6 7 7 7 7 8 9 9 9 9 9
9 9 8 7 6 5 4 4 4 3 3 3 3 3 4 4 4 4 4 4 5 5 6 7 7 8 8 8 8 8 8 8 8 8 8 8 9 9 10 10 10 10 11
10 10 9 9 9 8 7 7 6 6 5 5 5 6 6 6 6 6 6 6 6 7 7 8 9 9 10 10 10 10 10 9 9 10 10 11 11 11 11 10 10 11 12
10 9 10 11 11 11 10 10 9 8 8 8 8 8 8 8 8 8 8 8 8 9 9 10 10 11 11 11 11 11 11 12 12 12 12 12 13 13 12 11 12 13 13
11 10 10 11 12 12 12 11 11 11 10 10 10 10 10 10 10 10 10 11 11 11 11 12 13 13 13 13 13 13 13 14 14 14 13 13 13 13 13 13 13 13 14
13 13 12 12 12 13 13 13 13 12 12 12 12 12 11 12 12 13 13 13 13 13 13 14 15 15 15 15 15 14 14 14 14 14 14 15 15 14 14 14 14 15 15
16 15 14 14 15 15 15 15 14 14 14 14 14 14 14 14 15 15 16 16 16 16 16 17 16 16 17 17 17 16 16 16 16 16 16 17 17 17 17 17 18 18 18
18 18 17 17 17 16 17 17 17 17 17 17 18 18 18 18 18 18 18 19 19 19 19 19 19 18 19 19 19 18 18 18 18 18 18 19 19 18 18 19 20 20 21
20 20 20 20 19 19 19 19 19 19 20 20 20 21 21 21 21 21 22 22 22 22 22 22 22 22 21 21 20 19 19 20 20 19 19 19 19 19 19 20 21 22 23
23 23 22 22 22 22 21 22 22 22 23 22 23 24 24 24 24 24 24 24 24 24 24 24 24 24 23 22 22 21 21 21 21 21 21 21 21 22 22 23 24 24 25
25 24 24 24 25 26 25 25 25 26 26 25 26 26 26 27 26 26 26 26 26 26 26 26 25 25 24 24 23 23 23 22 22 23 23 24 24 25 26 26 27 27 27
27 26 26 28 28 28 28 28 28 28 28 28 28 27 27 28 27 27 27 27 27 28 28 27 26 26 25 25 24 25 25 25 25 25 25 26 26 27 28 28 29 28 29
31 29 29 30 30 30 30 30 31 31 31 30 30 30 29 30 29 29 29 28 28 28 28 28 27 27 27 27 26 27 27 27 27 27 27 28 28 29 29 30 30 29 29
32 32 31 30 31 32 33 34 34 34 34 33 33 32 31 31 30 30 30 30 30 30 29 29 29 29 29 29 28 28 28 28 29 29 29 29 29 29 30 30 30 30 30
35 35 34 34 34 35 35 35 36 37 37 35 34 33 32 32 32 32 32 32 33 32 32 32 31 31 31 31 30 30 30 30 30 30 30 29 30 30 31 31 31 31 31
37 38 38 37 37 37 36 36 37 38 36 34 35 36 35 34 33 34 34 34 34 34 33 33 33 32 32 32 32 33 33 32 32 32 32 32 32 32 32 32 32 32 32
39 39 40 40 39 38 38 38 38 38 37 36 36 35 35 33 33 34 34 33 34 34 34 35 35 34 34 34 34 34 34 33 34 34 32 32 33 33 33 33 33 33 33
41 40 41 40 39 38 38 38 39 38 37 37 36 36 36 34 34 34 35 35 35 35 36 36 37 37 36 36 36 35 34 34 34 34 34 33 33 33 34 34 33 33 34
40 40 41 39 38 39 38 38 38 39 38 37 37 37 37 36 36 36 37 36 36 36 37 37 36 36 36 36 35 35 35 34 34 34 34 34 34 34 35 35 35 34 35
40 41 41 39 38 38 38 38 38 38 37 37 37 36 36 36 36 37 37 38 37 36 36 35 35 35 35 35 34 34 35 35 35 35 34 34 34 34 34 35 35 35 35
40 40 40 39 38 37 37 38 38 37 37 37 38 37 36 35 35 36 36 36 36 36 36 35 34 33 33 33 34 35 34 34 34 34 34 34 35 35 35 35 35 35 35
38 38 38 38 38 37 37 37 37 38 37 37 37 37 36 35 35 35 35 35 35 35 35 34 33 33 33 33 34 34 34 34 34 34 34 34 35 35 35 34 34 34 34

GEFSMW_500_meanwind_252.txt.gz
Wind_Speed
5 4 4 4 4 4 3 2 3 3 3 3 3 3 3 3 3 3 3 3 2 1 1 2 2 3 4 4 5 4 4 5 5 5 6 6 6 5 5 6 6 6 7
3 4 5 3 3 3 2 1 1 2 2 2 2 3 3 3 3 4 4 3 2 2 2 3 3 4 5 5 6 6 6 5 6 6 6 6 7 6 6 6 7 7 8
4 3 4 3 2 2 2 1 0 1 1 2 2 3 3 4 3 4 4 4 3 3 3 4 5 6 6 6 6 7 7 6 6 7 7 7 7 7 7 8 8 8 9
5 4 3 3 3 3 2 2 1 0 1 1 2 3 4 4 5 5 5 5 5 5 5 6 7 7 7 7 7 8 8 8 8 9 9 9 9 8 9 9 9 9 9
6 5 4 3 3 4 5 4 3 2 2 3 3 4 5 5 6 6 6 6 6 6 7 7 8 8 8 8 8 9 9 10 10 11 11 10 10 10 10 10 10 10 11
7 7 6 5 4 5 6 6 5 5 5 5 5 5 5 6 6 7 7 7 7 8 8 9 9 9 10 10 10 10 11 11 11 11 11 12 12 11 11 11 11 12 12
9 8 7 7 7 7 8 8 8 7 7 7 7 7 7 7 8 8 9 9 9 10 10 10 11 11 11 11 11 12 12 11 12 13 13 13 13 13 14 13 13 13 13
11 10 9 9 10 10 10 10 10 10 9 9 9 9 8 9 10 10 11 11 12 12 12 12 12 12 12 13 13 13 13 13 13 13 14 15 15 15 16 15 15 15 15
12 12 11 11 11 11 12 12 12 12 12 11 11 11 11 11 12 12 13 13 14 14 14 14 14 15 15 15 15 15 14 15 15 15 16 17 17 17 18 17 17 17 17
14 14 14 13 11 11 12 14 14 13 13 13 13 13 14 14 14 15 15 16 16 17 17 17 17 17 17 17 17 16 16 17 17 18 18 18 18 18 19 19 19 19 19
16 15 15 16 15 14 14 14 15 16 16 16 15 16 16 16 16 17 18 18 19 19 20 20 20 20 19 19 19 19 18 18 18 18 18 18 19 19 19 20 21 21 21
18 18 17 18 18 18 18 18 17 17 18 18 18 18 19 19 19 20 20 20 20 21 22 22 22 22 22 22 21 21 20 20 20 20 20 20 20 21 21 20 20 20 21
21 21 20 20 20 21 21 20 20 20 20 20 20 21 22 23 23 23 23 23 24 23 23 23 24 24 24 24 23 23 23 22 22 22 22 22 22 22 21 21 21 21 21
24 24 24 22 22 22 23 23 23 23 23 23 23 23 24 24 25 26 26 25 26 25 25 25 25 25 25 25 26 25 25 24 24 24 24 24 24 24 23 24 24 24 24
24 25 26 25 24 24 25 25 26 26 26 26 26 26 26 26 27 27 27 28 27 27 26 26 26 27 27 27 27 27 27 26 25 25 25 25 25 25 25 26 26 27 27
25 25 25 26 27 27 27 27 27 28 28 29 29 29 29 29 29 29 30 30 29 29 29 28 28 28 28 27 27 27 28 28 27 27 26 26 26 27 27 27 28 28 28
27 27 27 27 28 28 29 30 30 30 30 31 31 32 32 31 31 32 32 32 32 32 31 31 31 30 29 29 29 29 29 29 29 29 28 27 28 28 28 29 30 30 30
30 31 31 30 30 30 31 32 33 32 32 33 33 34 33 33 34 34 33 34 34 34 33 32 32 31 31 31 31 31 31 31 30 30 30 30 30 30 31 31 31 32 32
33 33 33 33 33 33 33 33 34 34 34 34 34 35 35 36 36 35 35 35 35 34 34 33 32 32 32 33 33 33 33 32 31 32 32 32 32 32 33 33 32 32 33
34 35 35 36 35 36 36 36 36 36 35 35 35 36 37 37 37 37 37 36 35 34 34 33 32 32 33 34 35 35 35 35 35 35 35 35 34 34 34 34 34 34 34
37 37 37 39 38 38 38 38 38 38 37 36 37 37 37 38 38 37 38 37 36 35 34 33 32 33 33 34 35 36 36 37 37 36 36 35 35 35 35 35 35 35 35
38 39 40 40 40 40 40 39 39 40 39 39 38 38 38 39 38 38 37 37 36 35 36 34 33 33 34 35 35 36 37 37 38 38 37 36 36 36 36 37 37 37 36
40 40 41 41 42 41 41 41 41 40 41 41 40 40 39 38 37 37 37 36 35 35 34 34 34 34 35 35 35 36 37 37 37 37 37 37 37 38 38 38 38 37 36
40 40 41 41 41 41 41 41 41 41 41 40 39 38 37 37 37 37 37 37 37 35 35 35 34 35 35 35 36 36 37 38 38 38 38 38 38 38 38 37 36 36 35
39 39 40 40 40 40 41 41 40 40 39 39 37 37 37 36 37 37 37 38 37 36 35 34 34 35 35 35 35 36 36 37 37 37 38 37 37 37 37 36 36 36 36
39 40 40 40 40 40 39 40 40 39 40 39 38 38 37 37 37 37 37 38 37 35 35 35 35 35 35 35 36 36 36 35 35 36 36 36 36 35 35 35 35 36 36